Greybull, WY

8:47 AM MST on December 14, 2019 (GMT -0700)
South Big Horn County

Weather History for KGEY - October, 2019

Change the Weather History Date:

Thursday, October 24, 2019

  Actual Average Record
Temperature  
Mean Temperature 37 °F 43 °F  
Max Temperature 48 °F 57 °F 77 °F (2014)
Min Temperature 26 °F 29 °F 22 °F (2006)
Degree Days  
Heating Degree Days 28 22  
Month to date heating degree days 541 423  
Since 1 July heating degree days 716 654  
Cooling Degree Days 0 0  
Month to date cooling degree days 0 0  
Year to date cooling degree days 733 669  
Moisture  
Dew Point 22 °F    
Average Humidity 61    
Maximum Humidity 88    
Minimum Humidity 33    
Precipitation  
Precipitation 0.00 in 0.01 in 0.06 in (2000)
Month to date precipitation 0.61 0.53  
Year to date precipitation 7.93 6.86  
Sea Level Pressure  
Sea Level Pressure 30.40 in    
Wind  
Wind Speed 5 mph ()    
Max Wind Speed 16 mph    
Max Gust Speed 23 mph    
Visibility 10.0 miles    
Events      
T = Trace of Precipitation, MM = Missing Value Source: Averaged Metar Reports

Daily Weather History Graph

Daily Weather History Graph

Search for Another Location

Airport or City:

Astronomy

Oct. 24, 2019 Rise Set
Actual Time 7:38 AM MDT 6:13 PM MDT
Civil Twilight 7:09 AM MDT 6:43 PM MDT
Nautical Twilight 6:35 AM MDT 7:17 PM MDT
Astronomical Twilight 6:01 AM MDT 7:50 PM MDT
Moon 2:58 AM MDT (10/24) 4:55 PM MDT (10/24)
Length of Visible Light 11h 34m
Length of Day
10h 34m
Waning Crescent, 16% of the Moon is Illuminated
Oct 24
Waning Crescent
Oct 27
New
Nov 4
First Quarter
Nov 12
Full
Nov 19
Last Quarter

Hourly Weather History & Observations

Time (MDT) Temp. Windchill Dew Point Humidity Pressure Visibility Wind Dir Wind Speed Gust Speed Precip Events Conditions
12:53 AM 34.0 °F 25.0 °F 24.1 °F 67% 30.47 in 10.0 mi NW 12.7 mph - N/A   Overcast
1:53 AM 33.1 °F 26.9 °F 25.0 °F 72% 30.47 in 10.0 mi West 6.9 mph - N/A   Overcast
2:53 AM 30.0 °F 26.5 °F 25.0 °F 82% 30.48 in 10.0 mi SE 3.5 mph - N/A   Mostly Cloudy
3:53 AM 28.0 °F 22.8 °F 24.1 °F 85% 30.49 in 10.0 mi East 4.6 mph - N/A   Mostly Cloudy
4:53 AM 26.1 °F 20.5 °F 23.0 °F 88% 30.49 in 10.0 mi ESE 4.6 mph - N/A   Mostly Cloudy
5:53 AM 26.1 °F 20.5 °F 21.9 °F 84% 30.49 in 10.0 mi SE 4.6 mph - N/A   Clear
6:53 AM 26.1 °F - 21.9 °F 84% 30.48 in 10.0 mi Calm Calm - N/A   Clear
7:53 AM 28.0 °F 22.8 °F 21.9 °F 78% 30.49 in 10.0 mi East 4.6 mph - N/A   Clear
8:53 AM 28.0 °F 22.8 °F 23.0 °F 81% 30.48 in 10.0 mi ESE 4.6 mph - N/A   Clear
9:53 AM 32.0 °F - 25.0 °F 75% 30.47 in 10.0 mi Calm Calm - N/A   Clear
10:53 AM 39.0 °F 31.8 °F 24.1 °F 55% 30.44 in 10.0 mi SE 11.5 mph - N/A   Clear
11:53 AM 41.0 °F 33.5 °F 21.9 °F 47% 30.40 in 10.0 mi SSE 13.8 mph 21.9 mph N/A   Clear
12:53 PM 43.0 °F 38.8 °F 21.9 °F 43% 30.35 in 10.0 mi SE 6.9 mph - N/A   Mostly Cloudy
1:53 PM 45.0 °F 41.2 °F 21.0 °F 39% 30.32 in 10.0 mi Variable 6.9 mph - N/A   Overcast
2:53 PM 46.0 °F 41.9 °F 21.0 °F 37% 30.30 in 10.0 mi ESE 8.1 mph - N/A   Clear
3:53 PM 46.0 °F 43.9 °F 19.0 °F 34% 30.31 in 10.0 mi SE 4.6 mph - N/A   Clear
4:53 PM 46.9 °F - 19.0 °F 33% 30.32 in 10.0 mi Calm Calm - N/A   Clear
5:53 PM 46.0 °F 43.9 °F 19.9 °F 35% 30.32 in 10.0 mi South 4.6 mph - N/A   Mostly Cloudy
6:53 PM 43.0 °F 41.3 °F 19.9 °F 40% 30.33 in 10.0 mi SSE 3.5 mph - N/A   Overcast
7:53 PM 42.1 °F 40.2 °F 21.9 °F 45% 30.35 in 10.0 mi SE 3.5 mph - N/A   Overcast
8:53 PM 37.0 °F 32.4 °F 24.1 °F 59% 30.37 in 10.0 mi East 5.8 mph - N/A   Partly Cloudy
9:53 PM 35.1 °F 29.3 °F 23.0 °F 61% 30.36 in 10.0 mi SE 6.9 mph - N/A   Clear
10:53 PM 33.1 °F 26.9 °F 23.0 °F 66% 30.36 in 10.0 mi SE 6.9 mph - N/A   Clear
11:53 PM 33.1 °F 30.0 °F 21.9 °F 64% 30.36 in 10.0 mi ESE 3.5 mph - N/A   Clear